Regional Weather Roundup
Issued by NWS San Diego, CA

Home | Current Version | Previous Version | Text Only | Print | Product List | Glossary On
Versions: 1 2 3 4 5 6 7 8 9 10 11 12 13 14 15 16 17 18 19 20 21 22 23 24 25 26 27 28 29 30 31 32 33 34 35 36 37 38 39 40 41 42 43 44 45 46 47 48 49 50
713
ASUS46 KSGX 120011
RWRSGX

SAN DIEGO HOURLY WEATHER ROUNDUP
NATIONAL WEATHER SERVICE SAN DIEGO CA
400 PM PST THU FEB 11 2016

NOTE: "FAIR" INDICATES FEW OR NO CLOUDS BELOW 12,000 FEET WITH NO
SIGNIFICANT WEATHER AND/OR OBSTRUCTIONS TO VISIBILITY.

CAZ042-043-060-061-PZZ750-775-120100-

GREATER SAN DIEGO AREA

CITY           SKY/WX    TMP DP  RH WIND       PRES   REMARKS
LINDBERGH FLD  MOSUNNY   82  26  13 NW5       30.06R
POINT LOMA       N/A     77  27  16 W7          N/A
NATIONAL CITY    N/A     76  53  44 CALM      30.06R
CHULA VISTA      N/A     78  48  33 CALM      29.99R
IMPERIAL BEACH SUNNY     71  49  45 SW6       30.07R
BROWN FIELD    SUNNY     78  31  17 NW6       30.07R
MIRAMAR MCAS   SUNNY     83  25  12 W6        30.06R
MONTGOMERY FLD SUNNY     81  26  13 W8        30.07R

$$

NORTH SAN DIEGO COUNTY

CITY           SKY/WX    TMP DP  RH WIND       PRES   REMARKS
CAMP PENDLETON MOSUNNY   79  27  14 SW9       30.05R
OCEANSIDE AP   SUNNY     78  33  19 SW7       30.05R
OCEANSIDE HBR    N/A     70  51  51 NW3       30.07S
VISTA            N/A     81  36  20 W3        30.04R
CARLSBAD       SUNNY     79  27  14 W5        30.06R
DEL MAR          N/A     77  36  22 CALM      30.08R
LA JOLLA SCRIP   N/A     77  41  27 CALM      30.06
FALLBROOK        N/A     81  35  18 CALM      30.04R
ESCONDIDO        N/A     81  34  18 SW5       30.06R
SAN MARCOS       N/A     80  32  17 W8        30.04R
POWAY            N/A     84  33  16 CALM      30.08R

$$

EAST SAN DIEGO COUNTY

CITY           SKY/WX    TMP DP  RH WIND       PRES   REMARKS
RAMONA         SUNNY     79  43  27 W7        30.09R
SANTEE LAKES     N/A     82  32  16 W3        30.05R
LA MESA          N/A     82  26  13 NW2       29.99R
JAMUL            N/A     80  38  21 CALM      30.07R
DESCANSO N       N/A     77  29  17 CALM      29.98R
MT. LAGUNA OBS   N/A     64  13  13 CALM      29.82S
CAMPO            N/A     75  21  13 E13       30.11R

$$

ORANGE COUNTY AND THE LOS ANGELES BASIN

CITY           SKY/WX    TMP DP  RH WIND       PRES   REMARKS
JOHN WAYNE AP  MOSUNNY   79  29  16 W7        30.05R
LAGUNA BEACH     N/A     74  54  49 S2        30.01R
LAKE FOREST FR   N/A     83  29  14 CALM      29.94R
HUNTINGTON BCH   N/A     73  51  45 SW2       30.07S
LOS ALAMITOS   SUNNY     75  37  25 SW10      30.05R
FULLERTON      SUNNY     79  31  17 SW7       30.05R
LONG BEACH     SUNNY     77  34  21 S7        30.05S
L.A. AP        MOSUNNY   71  42  35 W10       30.07R
L.A. DOWNTOWN  SUNNY     78  39  24 VRB3      30.05R

$$

THE INLAND EMPIRE

CITY           SKY/WX    TMP DP  RH WIND       PRES   REMARKS
CORONA         SUNNY     85  33  15 W9        30.06
CHINO          MOSUNNY   84  35  17 SW9       30.07R
ONTARIO        MOSUNNY   84  28  13 SW8       30.07R
SAN BERNARDINO SUNNY    N/A N/A N/A CALM      30.07R
RIVERSIDE AP   SUNNY     85  29  13 W8        30.06R
MORENO VALLEY    N/A     87  26  10 CALM      28.20R
HORSETHIEF CYN   N/A     84  22  10 NE5       30.08S
PERRIS           N/A     87  19   8 CALM      30.09S
HEMET EAST       N/A     83  16   8 W5        29.96S
FRENCH VALLEY  FAIR      84  28  13 S7        30.08S
TEMECULA         N/A     84  38  19 SW6       30.00R

$$

SAN BERNARDINO AND RIVERSIDE COUNTY MOUNTAINS

CITY           SKY/WX    TMP DP  RH WIND       PRES   REMARKS
BIG BEAR AP    SUNNY     61  12  15 E3        30.36R
ANGELUS OAKS     N/A     65  26  23 CALM      30.10R
PINE COVE        N/A     66  22  19 CALM      30.09S

$$

SOUTHERN DESERT INCLUDING THE COACHELLA VALLEY

CITY           SKY/WX    TMP DP  RH WIND       PRES   REMARKS
PALM SPRINGS   SUNNY     84  26  12 CALM      30.09S
THOUSAND PALMS   N/A     88  25  10 SE3       30.05S
PALM DESERT      N/A     85  33  15 CALM      32.03S
THERMAL        SUNNY     83  25  12 SE6       30.05R
BLYTHE         SUNNY     82  31  15 E5        30.08S
IMPERIAL AP    SUNNY     85  26  11 VRB3      30.06S
EL CENTRO NAS  SUNNY     85  23  10 E6        30.08S
YUMA AZ        MOSUNNY   86  23  10 N6        30.06
MEXICALI       SUNNY     84  21  10 W6        30.07S

$$

UPPER DESERT

CITY           SKY/WX    TMP DP  RH WIND       PRES   REMARKS
VICTORVILLE AP SUNNY     73  18  12 CALM      30.20R
HESPERIA         N/A     74  22  14 CALM      30.29S
APPLE VALLEY     N/A     76  21  12 W2        30.15R
PALMDALE       SUNNY     72  24  16 CALM      30.19S
LANCASTER      SUNNY     74  23  15 NE3       30.19R
DAGGETT        SUNNY     75  22  13 NE5       30.16S
29 PALMS N     MOSUNNY   77  18  11 S6        30.21S
NEEDLES        SUNNY     82  26  13 N9        30.12R

$$

REGIONAL REPORTS

CITY           SKY/WX    TMP DP  RH WIND       PRES   REMARKS
SANTA BARBARA  SUNNY     74  43  32 W6        30.07R
SANDBERG       SUNNY     69  26  20 NE9       30.27R
LAS VEGAS NV   MOSUNNY   73  20  13 N5        30.15S
PHOENIX AZ     SUNNY     84  27  12 W5        30.07S
TIJUANA        SUNNY     79  25  13 W6        30.09R
ENSENADA NW      N/A     75  32  20 CALM      30.04R

$$

OFFSHORE ISLANDS

CITY           SKY/WX    TMP DP  RH WIND       PRES   REMARKS
CATALINA ARPT  SUNNY     75  24  15 W6        30.13S
SAN CLEMENTE I MOSUNNY   69  53  56 N5        30.08S
SAN NICOLAS IS MOSUNNY   71  44  37 W3        30.08S

$$

MARINE AND OFFSHORE BUOY REPORTS

STATION/POSITION SKY/WX   TEMP    WIND        PRES    SWELL
                          AIR SEA DIR/SP/G            HT/PER/DIR
                          (F)     (DEG/KT/KT) (MB)    (FT/S/D)
TANNER BANKS               61 61  320/  8/  8 1018.5R   5/300/12
S CLEMENTE BASIN           64 64   CALM  /  2 1017.8S   5/260/13
SAN NICOLAS IS.               59                N/A     5/270/13
SO. S. ROSA ISLA           58 60              1018.0R
W. S. BARBARA CH           56 59  310/ 16/ 17 1018.2R   7/310/21
M. S. BARBARA CH           62 60  260/  4/  6 1018.8R
S. MONICA BASIN            64 63  290/  2/  4 1018.5R   3/250/12
S PEDRO CHANNEL               64                N/A     3/270/12
DANA POINT                    63                N/A     2/250/14
OCEANSIDE OFFSHR              62                N/A     3/260/13
TORREY PINES OTR              62                N/A     3/260/14
LA JOLLA 1                 67 62  360/  3/  5 1017.6F
SAN DIEGO BAY                 61              1018.0R
POINT LOMA SOUTH              63                N/A     3/270/12

$$





USA.gov is the U.S. government's official web portal to all federal, state and local government web resources and services.